This is the latest recevied weather packets stored in our database for station/object KJ7HSW. If no packets are shown the sender has not sent any weather packets the latest 10 day(s).
| Time | Temp. | Humidity | Pressure | Rain* | Wind** | Luminosity | Snow |
|---|---|---|---|---|---|---|---|
| 1777705577 | 13.89° C | 80% | 1016.2 hPa | 0 mm | - | 0 W/m² | - |
| 1777705275 | 13.89° C | 81% | 1016 hPa | 0 mm | - | 0 W/m² | - |
| 1777704973 | 13.89° C | 81% | 1015.9 hPa | 0 mm | - | 0 W/m² | - |
| 1777704670 | 13.89° C | 81% | 1015.8 hPa | 0 mm | - | 0 W/m² | - |
| 1777704369 | 13.89° C | 80% | 1015.9 hPa | 0 mm | - | 0 W/m² | - |
| 1777704066 | 13.89° C | 80% | 1016 hPa | 0 mm | - | 0 W/m² | - |
| 1777703764 | 13.89° C | 79% | 1015.9 hPa | 0 mm | - | 0 W/m² | - |
| 1777703461 | 13.89° C | 79% | 1015.8 hPa | 0 mm | - | 0 W/m² | - |
| 1777703158 | 14.44° C | 79% | 1015.7 hPa | 0 mm | - | 0 W/m² | - |
| 1777702856 | 14.44° C | 78% | 1015.7 hPa | 0 mm | - | 0 W/m² | - |
| 1777702554 | 14.44° C | 79% | 1015.7 hPa | 0 mm | - | 0 W/m² | - |
| 1777702251 | 14.44° C | 78% | 1015.9 hPa | 0 mm | - | 0 W/m² | - |
| 1777701946 | 15° C | 77% | 1015.9 hPa | 0 mm | - | 0 W/m² | - |
| 1777701643 | 15° C | 77% | 1015.9 hPa | 0 mm | - | 0 W/m² | - |
| 1777701340 | 15° C | 77% | 1015.9 hPa | 0 mm | - | 0 W/m² | - |
| 1777701039 | 15.56° C | 73% | 1015.8 hPa | 0 mm | - | 0 W/m² | - |
| 1777700737 | 15.56° C | 72% | 1016 hPa | 0 mm | - | 0 W/m² | - |
| 1777700434 | 15.56° C | 73% | 1015.8 hPa | 0 mm | - | 0 W/m² | - |
| 1777700131 | 15.56° C | 73% | 1016 hPa | 0 mm | - | 0 W/m² | - |
| 1777699829 | 15° C | 73% | 1016 hPa | 0 mm | - | 0 W/m² | - |
| 1777699527 | 15° C | 76% | 1015.9 hPa | 0 mm | - | 0 W/m² | - |
| 1777699225 | 15° C | 77% | 1016.2 hPa | 0 mm | - | 0 W/m² | - |
| 1777698922 | 15° C | 79% | 1016 hPa | 0 mm | - | 0 W/m² | - |
| 1777698620 | 15° C | 78% | 1015.9 hPa | 0 mm | - | 0 W/m² | - |
| 1777698316 | 15° C | 77% | 1015.9 hPa | 0 mm | - | 0 W/m² | - |
* Rain latest hour (hover to see other rain measurements)
** Current wind speed in m/s (hover to see current wind gust speed)